Time,TemperatureF,DewpointF,PressureIn,WindDirection,WindDirectionDegrees,WindSpeedMPH,WindSpeedGustMPH,Humidity,HourlyPrecipIn,Conditions,Clouds,dailyrainin,SoftwareType,DateUTC
2013-07-08 00:00:00,79.2,78.3,29.97,NW,326,0.0,0.0,97,0.00,,---,0.00,VWS V14.01,2013-07-08 04:00:00,
2013-07-08 00:10:00,79.0,78.1,29.97,NW,325,0.0,0.0,97,0.00,,---,0.00,VWS V14.01,2013-07-08 04:10:00,
2013-07-08 00:20:00,78.8,77.9,29.98,NW,325,0.0,0.0,97,0.00,,---,0.00,VWS V14.01,2013-07-08 04:20:00,
2013-07-08 00:30:00,78.8,78.2,29.98,NW,325,0.0,0.0,98,0.00,,---,0.00,VWS V14.01,2013-07-08 04:30:00,
2013-07-08 00:40:00,78.6,78.0,29.98,NW,325,0.0,0.0,98,0.00,,---,0.00,VWS V14.01,2013-07-08 04:40:00,
2013-07-08 00:50:00,78.6,78.0,29.98,NW,325,0.0,0.0,98,0.00,,---,0.00,VWS V14.01,2013-07-08 04:50:00,
2013-07-08 01:00:00,78.6,78.0,29.98,NW,325,0.0,0.0,98,0.00,,---,0.00,VWS V14.01,2013-07-08 05:00:00,
2013-07-08 01:10:00,78.6,78.3,29.98,NW,325,0.0,0.0,99,0.00,,---,0.00,VWS V14.01,2013-07-08 05:10:00,
2013-07-08 01:20:00,78.5,77.9,29.98,NW,325,0.0,0.0,98,0.00,,---,0.00,VWS V14.01,2013-07-08 05:20:00,
2013-07-08 01:30:00,78.5,78.2,29.98,NW,325,0.0,0.0,99,0.00,,---,0.00,VWS V14.01,2013-07-08 05:30:00,
2013-07-08 01:40:00,78.5,78.2,29.98,NW,325,0.0,0.0,99,0.00,,---,0.00,VWS V14.01,2013-07-08 05:40:00,
2013-07-08 01:50:00,78.3,78.3,29.98,NW,325,0.0,0.0,100,0.00,,---,0.00,VWS V14.01,2013-07-08 05:50:00,
2013-07-08 02:00:00,78.1,78.1,29.97,NW,325,0.0,0.0,100,0.00,,---,0.00,VWS V14.01,2013-07-08 06:00:00,
2013-07-08 02:10:00,77.7,77.7,29.97,NW,325,0.0,0.0,100,0.00,,---,0.00,VWS V14.01,2013-07-08 06:10:00,
2013-07-08 02:20:00,77.6,77.6,29.97,NW,325,0.0,0.0,100,0.00,,---,0.00,VWS V14.01,2013-07-08 06:20:00,
2013-07-08 02:30:00,77.2,77.2,29.97,NW,325,0.0,0.0,100,0.00,,---,0.00,VWS V14.01,2013-07-08 06:30:00,
2013-07-08 02:40:00,77.0,77.0,29.97,NW,325,0.0,0.0,100,0.00,,---,0.00,VWS V14.01,2013-07-08 06:40:00,
2013-07-08 02:50:00,76.7,76.7,29.97,NW,325,0.0,0.0,100,0.00,,---,0.00,VWS V14.01,2013-07-08 06:50:00,
2013-07-08 03:00:00,76.5,76.5,29.97,NW,325,0.0,0.0,100,0.00,,---,0.00,VWS V14.01,2013-07-08 07:00:00,
2013-07-08 03:10:00,76.3,76.3,29.97,NW,325,0.0,0.0,100,0.00,,---,0.00,VWS V14.01,2013-07-08 07:10:00,
2013-07-08 03:20:00,76.1,76.1,29.96,NW,325,0.0,0.0,100,0.00,,---,0.00,VWS V14.01,2013-07-08 07:20:00,
2013-07-08 03:30:00,76.0,76.0,29.96,NW,325,0.0,0.0,100,0.00,,---,0.00,VWS V14.01,2013-07-08 07:30:00,
2013-07-08 03:40:00,75.8,75.8,29.96,NW,325,0.0,0.0,100,0.00,,---,0.00,VWS V14.01,2013-07-08 07:40:00,
2013-07-08 03:50:00,75.6,75.6,29.97,NNE,16,0.0,0.0,100,0.00,,---,0.00,VWS V14.01,2013-07-08 07:50:00,
2013-07-08 04:00:00,75.4,75.4,29.97,NNE,16,0.0,0.0,100,0.00,,---,0.00,VWS V14.01,2013-07-08 08:00:00,
2013-07-08 04:10:00,75.4,75.4,29.97,North,8,0.0,0.0,100,0.00,,---,0.00,VWS V14.01,2013-07-08 08:10:00,
2013-07-08 04:20:00,75.3,75.3,29.97,North,8,0.0,0.0,100,0.00,,---,0.00,VWS V14.01,2013-07-08 08:20:00,
2013-07-08 04:30:00,75.3,75.3,29.98,North,8,0.0,0.0,100,0.00,,---,0.00,VWS V14.01,2013-07-08 08:30:00,
2013-07-08 04:40:00,75.3,75.3,29.98,North,8,0.0,0.0,100,0.00,,---,0.00,VWS V14.01,2013-07-08 08:40:00,
2013-07-08 04:50:00,75.3,75.3,29.98,North,8,0.0,0.0,100,0.00,,---,0.00,VWS V14.01,2013-07-08 08:50:00,
2013-07-08 05:00:00,75.3,75.3,29.98,North,8,0.0,0.0,100,0.00,,---,0.00,VWS V14.01,2013-07-08 09:00:00,
2013-07-08 05:10:00,75.3,75.3,29.98,North,8,0.0,0.0,100,0.00,,---,0.00,VWS V14.01,2013-07-08 09:10:00,
2013-07-08 05:20:00,75.3,75.3,29.98,North,8,0.0,0.0,100,0.00,,---,0.00,VWS V14.01,2013-07-08 09:20:00,
2013-07-08 05:30:00,75.3,75.3,29.98,North,8,0.0,0.0,100,0.00,,---,0.00,VWS V14.01,2013-07-08 09:30:00,
2013-07-08 05:40:00,75.1,75.1,29.98,North,8,0.0,0.0,100,0.00,,---,0.00,VWS V14.01,2013-07-08 09:40:00,
2013-07-08 05:50:00,75.1,75.1,29.98,North,8,0.0,0.0,100,0.00,,---,0.00,VWS V14.01,2013-07-08 09:50:00,
2013-07-08 06:00:00,74.9,74.9,29.98,North,8,0.0,0.0,100,0.00,,---,0.00,VWS V14.01,2013-07-08 10:00:00,
2013-07-08 06:10:00,74.9,74.9,29.98,North,8,0.0,0.0,100,0.00,,---,0.00,VWS V14.01,2013-07-08 10:10:00,
2013-07-08 06:20:00,74.7,74.7,29.98,North,8,0.0,0.0,100,0.00,,---,0.00,VWS V14.01,2013-07-08 10:20:00,
2013-07-08 06:30:00,74.7,74.7,29.99,North,8,0.0,0.0,100,0.00,,---,0.00,VWS V14.01,2013-07-08 10:30:00,
2013-07-08 06:40:00,74.7,74.7,29.99,North,8,0.0,0.0,100,0.00,,---,0.00,VWS V14.01,2013-07-08 10:40:00,
2013-07-08 06:50:00,74.7,74.7,29.99,North,8,0.0,0.0,100,0.00,,---,0.00,VWS V14.01,2013-07-08 10:50:00,
2013-07-08 07:00:00,74.7,74.7,30.00,North,8,0.0,0.0,100,0.00,,---,0.00,VWS V14.01,2013-07-08 11:00:00,
2013-07-08 07:10:00,74.9,74.9,30.00,North,8,0.0,0.0,100,0.00,,---,0.00,VWS V14.01,2013-07-08 11:10:00,
2013-07-08 07:20:00,74.9,74.9,30.00,East,93,0.0,0.0,100,0.00,,---,0.00,VWS V14.01,2013-07-08 11:20:00,
2013-07-08 07:30:00,75.1,75.1,30.00,East,93,0.0,0.0,100,0.00,,---,0.00,VWS V14.01,2013-07-08 11:30:00,
2013-07-08 07:40:00,75.3,75.3,30.00,East,93,0.0,0.0,100,0.00,,---,0.00,VWS V14.01,2013-07-08 11:40:00,
2013-07-08 07:50:00,75.4,75.4,30.00,ENE,71,0.0,0.0,100,0.00,,---,0.00,VWS V14.01,2013-07-08 11:50:00,
2013-07-08 08:00:00,75.6,75.6,30.01,ENE,72,0.0,0.0,100,0.00,,---,0.00,VWS V14.01,2013-07-08 12:00:00,
2013-07-08 08:10:00,75.8,75.8,30.01,North,356,0.0,0.0,100,0.00,,---,0.00,VWS V14.01,2013-07-08 12:10:00,
2013-07-08 08:20:00,76.0,76.0,30.01,North,356,0.0,0.0,100,0.00,,---,0.00,VWS V14.01,2013-07-08 12:20:00,
2013-07-08 08:30:00,76.3,76.3,30.01,WSW,257,0.0,2.0,100,0.00,,---,0.00,VWS V14.01,2013-07-08 12:30:00,
2013-07-08 08:40:00,76.7,76.7,30.01,West,270,0.0,0.0,100,0.00,,---,0.00,VWS V14.01,2013-07-08 12:40:00,
2013-07-08 08:50:00,76.1,75.5,30.01,West,281,0.0,6.0,98,0.00,,---,0.00,VWS V14.01,2013-07-08 12:50:00,
2013-07-08 09:00:00,75.6,75.0,30.01,West,281,0.0,0.0,98,0.00,,---,0.00,VWS V14.01,2013-07-08 13:00:00,
2013-07-08 09:10:00,75.4,74.8,30.01,West,281,0.0,0.0,98,0.00,,---,0.00,VWS V14.01,2013-07-08 13:10:00,
2013-07-08 09:20:00,75.6,74.7,30.01,West,281,0.0,0.0,97,0.00,,---,0.00,VWS V14.01,2013-07-08 13:20:00,
2013-07-08 09:30:00,76.0,75.1,30.01,West,281,0.0,0.0,97,0.00,,---,0.00,VWS V14.01,2013-07-08 13:30:00,
2013-07-08 09:40:00,76.7,75.5,30.01,West,281,0.0,0.0,96,0.00,,---,0.00,VWS V14.01,2013-07-08 13:40:00,
2013-07-08 09:50:00,77.4,75.9,30.01,West,281,0.0,0.0,95,0.00,,---,0.00,VWS V14.01,2013-07-08 13:50:00,
2013-07-08 10:00:00,78.1,76.2,30.01,NNE,28,0.0,0.0,94,0.00,,---,0.00,VWS V14.01,2013-07-08 14:00:00,
2013-07-08 10:10:00,79.0,77.4,30.01,NNE,28,0.0,0.0,95,0.00,,---,0.00,VWS V14.01,2013-07-08 14:10:00,
2013-07-08 10:20:00,79.9,78.3,30.01,NNE,28,0.0,0.0,95,0.00,,---,0.00,VWS V14.01,2013-07-08 14:20:00,
2013-07-08 10:30:00,80.7,78.5,30.01,NNE,28,0.0,0.0,93,0.00,,---,0.00,VWS V14.01,2013-07-08 14:30:00,
2013-07-08 10:40:00,80.9,79.0,30.01,North,10,0.0,0.0,94,0.00,,---,0.00,VWS V14.01,2013-07-08 14:40:00,
2013-07-08 10:50:00,81.4,78.5,30.01,NNE,16,0.0,0.0,91,0.00,,---,0.00,VWS V14.01,2013-07-08 14:50:00,
2013-07-08 11:00:00,82.0,78.8,30.01,East,80,0.0,0.0,90,0.00,,---,0.00,VWS V14.01,2013-07-08 15:00:00,
2013-07-08 11:10:00,82.4,78.8,30.01,ESE,119,0.0,0.0,89,0.00,,---,0.00,VWS V14.01,2013-07-08 15:10:00,
2013-07-08 11:20:00,83.0,78.0,30.01,ESE,119,0.0,0.0,85,0.00,,---,0.00,VWS V14.01,2013-07-08 15:20:00,
2013-07-08 11:30:00,83.8,78.8,30.01,ESE,119,0.0,0.0,85,0.00,,---,0.00,VWS V14.01,2013-07-08 15:30:00,
2013-07-08 11:40:00,84.1,78.8,30.01,ESE,119,0.0,0.0,84,0.00,,---,0.00,VWS V14.01,2013-07-08 15:40:00,
2013-07-08 11:50:00,84.7,79.0,30.01,North,0,0.0,0.0,83,0.00,,---,0.00,VWS V14.01,2013-07-08 15:50:00,
2013-07-08 12:00:00,84.7,79.3,30.01,South,184,0.0,2.0,84,0.00,,---,0.00,VWS V14.01,2013-07-08 16:00:00,
2013-07-08 12:10:00,84.7,79.0,30.01,East,97,0.0,0.0,83,0.00,,---,0.00,VWS V14.01,2013-07-08 16:10:00,
2013-07-08 12:20:00,84.5,79.1,30.01,East,97,0.0,0.0,84,0.00,,---,0.00,VWS V14.01,2013-07-08 16:20:00,
2013-07-08 12:30:00,84.3,79.7,30.01,East,97,0.0,0.0,86,0.00,,---,0.00,VWS V14.01,2013-07-08 16:30:00,
2013-07-08 12:40:00,84.5,79.8,30.01,East,97,0.0,0.0,86,0.00,,---,0.00,VWS V14.01,2013-07-08 16:40:00,
2013-07-08 12:50:00,84.9,80.2,30.00,East,99,0.0,0.0,86,0.00,,---,0.00,VWS V14.01,2013-07-08 16:50:00,
2013-07-08 13:00:00,85.1,79.7,30.00,NNW,330,0.0,0.0,84,0.00,,---,0.00,VWS V14.01,2013-07-08 17:00:00,
2013-07-08 13:10:00,85.5,79.8,30.00,NW,308,0.0,0.0,83,0.00,,---,0.00,VWS V14.01,2013-07-08 17:10:00,
2013-07-08 13:20:00,84.5,79.1,30.01,East,97,0.0,0.0,84,0.00,,---,0.00,VWS V14.01,2013-07-08 17:20:00,
2013-07-08 13:30:00,84.1,79.8,30.00,NNE,32,0.0,3.0,87,0.00,,---,0.00,VWS V14.01,2013-07-08 17:30:00,
2013-07-08 13:40:00,84.5,79.9,30.01,East,97,0.0,0.0,86,0.00,,---,0.00,VWS V14.01,2013-07-08 17:40:00,
2013-07-08 13:50:00,84.9,80.2,30.00,East,99,0.0,0.0,86,0.00,,---,0.00,VWS V14.01,2013-07-08 17:50:00,
2013-07-08 14:00:00,85.1,79.7,30.00,NNW,330,0.0,0.0,84,0.00,,---,0.00,VWS V14.01,2013-07-08 18:00:00,
2013-07-08 14:10:00,85.5,79.8,30.00,NW,308,0.0,0.0,83,0.00,,---,0.00,VWS V14.01,2013-07-08 18:10:00,
2013-07-08 14:20:00,85.5,79.8,30.00,ENE,66,0.0,2.0,83,0.00,,---,0.00,VWS V14.01,2013-07-08 18:20:00,
2013-07-08 14:30:00,84.1,79.8,30.00,NNE,32,0.0,3.0,87,0.00,,---,0.00,VWS V14.01,2013-07-08 18:30:00,
2013-07-08 14:40:00,84.5,80.6,29.98,East,86,0.0,0.0,88,0.00,,---,0.00,VWS V14.01,2013-07-08 18:40:00,
2013-07-08 14:50:00,84.3,81.1,29.98,ENE,59,0.0,2.0,90,0.00,,---,0.00,VWS V14.01,2013-07-08 18:50:00,
2013-07-08 15:00:00,83.6,80.7,29.98,East,82,0.0,0.0,91,0.00,,---,0.00,VWS V14.01,2013-07-08 19:00:00,
2013-07-08 15:10:00,82.6,80.4,29.98,ESE,114,0.0,3.0,93,0.00,,---,0.00,VWS V14.01,2013-07-08 19:10:00,
2013-07-08 15:20:00,83.4,81.5,29.98,East,89,0.0,3.0,94,0.00,,---,0.00,VWS V14.01,2013-07-08 19:20:00,
2013-07-08 15:30:00,85.3,80.6,29.98,ESE,121,0.0,2.0,86,0.00,,---,0.00,VWS V14.01,2013-07-08 19:30:00,
2013-07-08 15:40:00,84.5,80.6,29.98,East,86,0.0,0.0,88,0.00,,---,0.00,VWS V14.01,2013-07-08 19:40:00,
2013-07-08 15:50:00,84.3,81.1,29.98,ENE,59,0.0,2.0,90,0.00,,---,0.00,VWS V14.01,2013-07-08 19:50:00,
2013-07-08 16:00:00,83.6,80.7,29.98,East,82,0.0,0.0,91,0.00,,---,0.00,VWS V14.01,2013-07-08 20:00:00,
2013-07-08 16:10:00,82.6,80.4,29.98,ESE,114,0.0,3.0,93,0.00,,---,0.00,VWS V14.01,2013-07-08 20:10:00,
2013-07-08 16:20:00,84.5,79.1,29.95,East,80,0.0,2.0,84,0.00,,---,0.00,VWS V14.01,2013-07-08 20:20:00,
2013-07-08 16:30:00,84.9,80.2,29.95,ENE,65,0.0,2.0,86,0.00,,---,0.00,VWS V14.01,2013-07-08 20:30:00,
2013-07-08 16:40:00,84.9,80.2,29.95,ENE,62,0.0,0.0,86,0.00,,---,0.00,VWS V14.01,2013-07-08 20:40:00,
2013-07-08 16:50:00,84.3,78.9,29.95,NE,51,0.0,1.0,84,0.00,,---,0.00,VWS V14.01,2013-07-08 20:50:00,
2013-07-08 17:00:00,84.7,79.3,29.94,NNE,32,0.0,0.0,84,0.00,,---,0.00,VWS V14.01,2013-07-08 21:00:00,
2013-07-08 17:10:00,85.7,80.3,29.94,East,80,0.0,0.0,84,0.00,,---,0.00,VWS V14.01,2013-07-08 21:10:00,
2013-07-08 17:20:00,85.9,79.8,29.94,ENE,59,0.0,2.0,82,0.00,,---,0.00,VWS V14.01,2013-07-08 21:20:00,
2013-07-08 17:30:00,85.9,80.9,29.93,ENE,64,0.0,1.0,85,0.00,,---,0.00,VWS V14.01,2013-07-08 21:30:00,
2013-07-08 17:40:00,85.9,82.3,29.93,ENE,64,0.0,0.0,89,0.00,,---,0.00,VWS V14.01,2013-07-08 21:40:00,
2013-07-08 17:50:00,84.3,78.9,29.95,NE,51,0.0,1.0,84,0.00,,---,0.00,VWS V14.01,2013-07-08 21:50:00,
2013-07-08 18:00:00,84.7,79.3,29.94,NNE,32,0.0,0.0,84,0.00,,---,0.00,VWS V14.01,2013-07-08 22:00:00,
2013-07-08 18:10:00,82.6,79.0,29.93,NE,41,0.0,10.0,89,0.00,,---,0.00,VWS V14.01,2013-07-08 22:10:00,
2013-07-08 18:20:00,81.6,79.7,29.94,ENE,71,0.0,7.0,94,0.00,,---,0.00,VWS V14.01,2013-07-08 22:20:00,
2013-07-08 18:30:00,80.3,80.0,29.96,ENE,71,0.0,0.0,99,0.03,,---,0.03,VWS V14.01,2013-07-08 22:30:00,
2013-07-08 18:40:00,85.9,82.3,29.93,ENE,64,0.0,0.0,89,0.00,,---,0.00,VWS V14.01,2013-07-08 22:40:00,
2013-07-08 18:50:00,85.1,81.2,29.94,North,7,0.0,0.0,88,0.00,,---,0.00,VWS V14.01,2013-07-08 22:50:00,
2013-07-08 19:00:00,75.3,75.3,29.98,East,89,0.0,1.0,100,0.76,,---,0.76,VWS V14.01,2013-07-08 23:00:00,
2013-07-08 19:10:00,74.2,74.2,29.98,ENE,73,0.0,0.0,100,0.76,,---,0.76,VWS V14.01,2013-07-08 23:10:00,
2013-07-08 19:20:00,81.6,79.7,29.94,ENE,71,0.0,7.0,94,0.00,,---,0.00,VWS V14.01,2013-07-08 23:20:00,
2013-07-08 19:30:00,73.9,73.9,29.98,ENE,75,0.0,0.0,100,0.78,,---,0.78,VWS V14.01,2013-07-08 23:30:00,
2013-07-08 19:40:00,73.7,73.7,29.98,ESE,117,0.0,0.0,100,0.75,,---,0.78,VWS V14.01,2013-07-08 23:40:00,
2013-07-08 19:50:00,73.3,73.3,29.99,East,85,0.0,0.0,100,0.53,,---,0.79,VWS V14.01,2013-07-08 23:50:00,
2013-07-08 20:00:00,73.3,73.3,29.99,ENE,64,0.0,0.0,100,0.14,,---,0.79,VWS V14.01,2013-07-09 00:00:00,
2013-07-08 20:10:00,73.3,73.3,29.99,ESE,123,0.0,2.0,100,0.03,,---,0.79,VWS V14.01,2013-07-09 00:10:00,
2013-07-08 20:20:00,73.2,73.2,29.99,ENE,72,0.0,1.0,100,0.03,,---,0.79,VWS V14.01,2013-07-09 00:20:00,
2013-07-08 20:30:00,73.2,73.2,30.00,ENE,72,0.0,0.0,100,0.01,,---,0.79,VWS V14.01,2013-07-09 00:30:00,
2013-07-08 20:40:00,73.2,73.2,30.00,ENE,72,0.0,0.0,100,0.01,,---,0.79,VWS V14.01,2013-07-09 00:40:00,
2013-07-08 20:50:00,73.3,73.3,29.99,East,85,0.0,0.0,100,0.53,,---,0.79,VWS V14.01,2013-07-09 00:50:00,
2013-07-08 21:00:00,73.3,73.3,29.99,ENE,64,0.0,0.0,100,0.14,,---,0.79,VWS V14.01,2013-07-09 01:00:00,
2013-07-08 21:10:00,73.3,73.3,29.99,ESE,123,0.0,2.0,100,0.03,,---,0.79,VWS V14.01,2013-07-09 01:10:00,
2013-07-08 21:20:00,73.2,73.2,29.99,ENE,72,0.0,1.0,100,0.03,,---,0.79,VWS V14.01,2013-07-09 01:20:00,
2013-07-08 21:30:00,72.8,72.8,29.98,East,90,0.0,0.0,100,0.01,,---,0.80,VWS V14.01,2013-07-09 01:30:00,
2013-07-08 21:40:00,72.7,72.7,29.98,East,90,0.0,0.0,100,0.01,,---,0.80,VWS V14.01,2013-07-09 01:40:00,
2013-07-08 21:50:00,72.5,72.5,29.98,East,90,0.0,0.0,100,0.01,,---,0.80,VWS V14.01,2013-07-09 01:50:00,
2013-07-08 22:00:00,72.7,72.7,29.98,East,90,0.0,0.0,100,0.00,,---,0.80,VWS V14.01,2013-07-09 02:00:00,
2013-07-08 22:10:00,72.7,72.7,29.98,East,90,0.0,0.0,100,0.00,,---,0.80,VWS V14.01,2013-07-09 02:10:00,
2013-07-08 22:20:00,72.8,72.8,29.98,East,90,0.0,0.0,100,0.00,,---,0.80,VWS V14.01,2013-07-09 02:20:00,
2013-07-08 22:30:00,72.8,72.8,29.98,East,90,0.0,0.0,100,0.01,,---,0.80,VWS V14.01,2013-07-09 02:30:00,
2013-07-08 22:40:00,72.5,72.5,29.99,East,90,0.0,0.0,100,0.00,,---,0.80,VWS V14.01,2013-07-09 02:40:00,
2013-07-08 22:50:00,72.5,72.5,30.00,East,90,0.0,0.0,100,0.00,,---,0.80,VWS V14.01,2013-07-09 02:50:00,
2013-07-08 23:00:00,72.5,72.5,30.00,East,90,0.0,0.0,100,0.00,,---,0.80,VWS V14.01,2013-07-09 03:00:00,
2013-07-08 23:10:00,72.5,72.5,30.00,East,90,0.0,0.0,100,0.00,,---,0.80,VWS V14.01,2013-07-09 03:10:00,
2013-07-08 23:20:00,72.3,72.3,30.00,East,90,0.0,0.0,100,0.00,,---,0.80,VWS V14.01,2013-07-09 03:20:00,
2013-07-08 23:30:00,72.8,72.8,29.99,East,90,0.0,0.0,100,0.00,,---,0.80,VWS V14.01,2013-07-09 03:30:00,
2013-07-08 23:40:00,72.5,72.5,29.99,East,90,0.0,0.0,100,0.00,,---,0.80,VWS V14.01,2013-07-09 03:40:00,
2013-07-08 23:50:00,72.5,72.5,30.00,East,90,0.0,0.0,100,0.00,,---,0.80,VWS V14.01,2013-07-09 03:50:00,